TimeEDT,TemperatureF,Dew PointF,Humidity,Sea Level PressureIn,VisibilityMPH,Wind Direction,Wind SpeedMPH,Gust SpeedMPH,PrecipitationIn,Events,Conditions,WindDirDegrees,DateUTC
12:12 AM,42.8,42.8,100,29.87,10.0,WSW,4.6,-,N/A,,Clear,240,2012-10-21 04:12:00
12:33 AM,44.6,44.6,100,29.88,10.0,WSW,5.8,-,N/A,,Clear,240,2012-10-21 04:33:00
12:53 AM,44.6,44.6,100,29.89,10.0,WSW,5.8,-,N/A,,Clear,240,2012-10-21 04:53:00
1:13 AM,42.8,42.8,100,29.90,10.0,WSW,5.8,-,N/A,,Clear,240,2012-10-21 05:13:00
1:33 AM,42.8,42.8,100,29.91,10.0,WSW,3.5,-,N/A,,Clear,240,2012-10-21 05:33:00
1:53 AM,42.8,42.8,100,29.91,10.0,WSW,4.6,-,N/A,,Clear,240,2012-10-21 05:53:00
2:13 AM,42.8,42.8,100,29.93,10.0,SW,3.5,-,N/A,,Clear,230,2012-10-21 06:13:00
2:33 AM,41.0,41.0,100,29.93,7.0,SW,4.6,-,N/A,,Clear,230,2012-10-21 06:33:00
2:53 AM,41.0,41.0,100,29.93,7.0,SW,5.8,-,N/A,,Clear,230,2012-10-21 06:53:00
3:13 AM,41.0,41.0,100,29.94,7.0,WSW,5.8,-,N/A,,Clear,240,2012-10-21 07:13:00
3:34 AM,41.0,41.0,100,29.94,5.0,SW,4.6,-,N/A,,Clear,230,2012-10-21 07:34:00
3:54 AM,41.0,41.0,100,29.95,5.0,WSW,4.6,-,N/A,,Clear,250,2012-10-21 07:54:00
4:14 AM,41.0,41.0,100,29.96,7.0,WSW,4.6,-,N/A,,Clear,240,2012-10-21 08:14:00
4:34 AM,41.0,41.0,100,29.97,5.0,WSW,4.6,-,N/A,,Clear,240,2012-10-21 08:34:00
5:14 AM,41.0,41.0,100,29.99,7.0,WSW,4.6,-,N/A,,Clear,240,2012-10-21 09:14:00
5:34 AM,41.0,41.0,100,29.99,5.0,Calm,Calm,-,N/A,,Clear,0,2012-10-21 09:34:00
5:54 AM,41.0,41.0,100,29.99,4.0,Calm,Calm,-,N/A,,Clear,0,2012-10-21 09:54:00
6:14 AM,37.4,37.4,100,30.00,3.0,SW,3.5,-,N/A,,Clear,220,2012-10-21 10:14:00
6:29 AM,37.4,37.4,100,30.00,3.0,SW,4.6,-,N/A,,Clear,220,2012-10-21 10:29:00
6:50 AM,37.4,37.4,100,30.01,2.5,SSW,3.5,-,N/A,,Clear,210,2012-10-21 10:50:00
7:10 AM,37.4,37.4,100,30.01,1.5,SSW,3.5,-,N/A,,Mist,200,2012-10-21 11:10:00
7:30 AM,35.6,35.6,100,30.01,1.0,SSW,4.6,-,N/A,,Mist,210,2012-10-21 11:30:00
8:10 AM,35.6,35.6,100,30.02,0.5,SSW,3.5,-,N/A,Fog,Fog,210,2012-10-21 12:10:00
8:30 AM,37.4,37.4,100,30.03,0.2,Calm,Calm,-,N/A,Fog,Fog,0,2012-10-21 12:30:00
8:50 AM,37.4,37.4,100,30.03,0.2,SSW,4.6,-,N/A,Fog,Fog,200,2012-10-21 12:50:00
9:10 AM,41.0,41.0,100,30.04,1.5,SSW,3.5,-,N/A,,Mostly Cloudy,210,2012-10-21 13:10:00
9:30 AM,42.8,42.8,100,30.04,2.0,SSW,4.6,-,N/A,,Scattered Clouds,210,2012-10-21 13:30:00
9:50 AM,42.8,42.8,100,30.05,3.0,SW,8.1,-,N/A,,Clear,220,2012-10-21 13:50:00
10:12 AM,44.6,44.6,100,30.05,5.0,SW,5.8,-,N/A,,Clear,230,2012-10-21 14:12:00
10:32 AM,46.4,46.4,100,30.06,5.0,WSW,6.9,-,N/A,,Clear,240,2012-10-21 14:32:00
10:52 AM,48.2,48.2,100,30.06,7.0,WSW,5.8,-,N/A,,Clear,250,2012-10-21 14:52:00
11:12 AM,50.0,48.2,94,30.06,10.0,SW,5.8,-,N/A,,Clear,230,2012-10-21 15:12:00
11:32 AM,51.8,48.2,88,30.07,10.0,SW,5.8,-,N/A,,Clear,220,2012-10-21 15:32:00
11:53 AM,53.6,48.2,82,30.06,10.0,SW,5.8,-,N/A,,Clear,230,2012-10-21 15:53:00
12:13 PM,55.4,48.2,77,30.06,10.0,SW,5.8,-,N/A,,Clear,220,2012-10-21 16:13:00
12:33 PM,55.4,48.2,77,30.06,10.0,SW,6.9,-,N/A,,Scattered Clouds,230,2012-10-21 16:33:00
12:53 PM,55.4,44.6,67,30.06,10.0,WSW,8.1,-,N/A,,Clear,250,2012-10-21 16:53:00
1:13 PM,57.2,44.6,63,30.06,10.0,WSW,6.9,-,N/A,,Clear,250,2012-10-21 17:13:00
1:33 PM,55.4,42.8,63,30.05,10.0,West,6.9,-,N/A,,Scattered Clouds,260,2012-10-21 17:33:00
1:53 PM,57.2,42.8,59,30.05,10.0,WSW,8.1,-,N/A,,Clear,240,2012-10-21 17:53:00
2:13 PM,60.8,41.0,48,30.04,10.0,West,10.4,-,N/A,,Scattered Clouds,260,2012-10-21 18:13:00
2:33 PM,60.8,41.0,48,30.04,10.0,WSW,8.1,16.1,N/A,,Scattered Clouds,250,2012-10-21 18:33:00
2:54 PM,60.8,41.0,48,30.04,10.0,West,10.4,-,N/A,,Clear,270,2012-10-21 18:54:00
3:14 PM,62.6,41.0,45,30.04,10.0,WSW,6.9,10.4,N/A,,Clear,250,2012-10-21 19:14:00
3:34 PM,60.8,42.8,52,30.03,10.0,WSW,9.2,-,N/A,,Scattered Clouds,240,2012-10-21 19:34:00
3:54 PM,60.8,42.8,52,30.02,10.0,WSW,3.5,-,N/A,,Clear,250,2012-10-21 19:54:00
4:14 PM,60.8,41.0,48,30.02,10.0,WSW,6.9,-,N/A,,Clear,240,2012-10-21 20:14:00
4:34 PM,60.8,41.0,48,30.02,10.0,WSW,6.9,-,N/A,,Clear,240,2012-10-21 20:34:00
4:54 PM,60.8,41.0,48,30.02,10.0,SW,5.8,-,N/A,,Clear,230,2012-10-21 20:54:00
5:09 PM,60.8,41.0,48,30.01,10.0,SSW,10.4,-,N/A,,Clear,210,2012-10-21 21:09:00
5:29 PM,60.8,42.8,52,30.02,10.0,SW,6.9,-,N/A,,Clear,220,2012-10-21 21:29:00
5:50 PM,60.8,41.0,48,30.03,10.0,SW,5.8,-,N/A,,Clear,220,2012-10-21 21:50:00
6:10 PM,59.0,41.0,51,30.04,10.0,SW,6.9,-,N/A,,Clear,220,2012-10-21 22:10:00
6:30 PM,55.4,42.8,63,30.04,10.0,SW,4.6,-,N/A,,Clear,230,2012-10-21 22:30:00
6:50 PM,53.6,42.8,67,30.04,10.0,SSW,4.6,-,N/A,,Clear,210,2012-10-21 22:50:00
7:10 PM,53.6,41.0,62,30.04,10.0,SW,3.5,-,N/A,,Clear,220,2012-10-21 23:10:00
7:30 PM,51.8,42.8,71,30.05,10.0,Calm,Calm,-,N/A,,Clear,0,2012-10-21 23:30:00
7:50 PM,50.0,42.8,76,30.05,10.0,SSW,3.5,-,N/A,,Clear,200,2012-10-21 23:50:00
8:10 PM,46.4,42.8,87,30.05,10.0,South,3.5,-,N/A,,Clear,180,2012-10-22 00:10:00
8:30 PM,46.4,42.8,87,30.06,10.0,Calm,Calm,-,N/A,,Clear,0,2012-10-22 00:30:00
8:50 PM,46.4,42.8,87,30.06,10.0,SSE,3.5,-,N/A,,Clear,160,2012-10-22 00:50:00
9:11 PM,44.6,42.8,93,30.05,10.0,South,3.5,-,N/A,,Clear,170,2012-10-22 01:11:00
9:31 PM,44.6,42.8,93,30.06,7.0,Calm,Calm,-,N/A,,Clear,0,2012-10-22 01:31:00
9:51 PM,46.4,42.8,87,30.06,7.0,South,3.5,-,N/A,,Clear,180,2012-10-22 01:51:00
10:11 PM,44.6,42.8,93,30.06,7.0,Calm,Calm,-,N/A,,Clear,0,2012-10-22 02:11:00
10:31 PM,44.6,42.8,93,30.06,7.0,Calm,Calm,-,N/A,,Clear,0,2012-10-22 02:31:00
10:51 PM,44.6,42.8,93,30.06,7.0,Calm,Calm,-,N/A,,Clear,0,2012-10-22 02:51:00
11:11 PM,44.6,41.0,87,30.06,7.0,South,3.5,-,N/A,,Clear,180,2012-10-22 03:11:00
11:31 PM,44.6,41.0,87,30.06,7.0,South,3.5,-,N/A,,Clear,170,2012-10-22 03:31:00
11:51 PM,44.6,41.0,87,30.06,10.0,South,4.6,-,N/A,,Clear,170,2012-10-22 03:51:00